Location: Unspecified
(0.0000°N, 0.0000°E)
Time: 18:15:09
(UTC+00:00)

X-37B - Pass Details

Date: 18 January 2021
Orbit: 383 x 391 km, 45.1° (Epoch: 22 January)

Event Time Altitude Azimuth Distance (km) Brightness Sun altitude
Exits shadow 04:39:12 13° 194° (SSW) 1,265 3.2 -21.3°
Drops below altitude 10° 04:39:47 10° 185° (S) 1,409 3.6 -21.1°
Sets 04:42:23 0° 163° (SSE) 2,263 5.0 -20.5°
